Fort Lewis, WA
on Wednesday, November 21, 2012

Wednesday
Previous Day Next Day
Daily Summary
 ActualAverage (KOLM)Record (KOLM)
Temperature
Mean Temperature °F 42°F  
Max Temperature 48°F 49°F 67°F (1954)
Min Temperature 34°F 36°F 10°F (1978)
Degree Days
Heating Degree Days 24 23  
Month to date heating degree days 434  
Since 1 July heating degree days 1228  
Cooling Degree Days 0 0  
Month to date cooling degree days 0  
Year to date cooling degree days 106  
Moisture
Dew Point 40°F   
Average Humidity 86    
Maximum Humidity 98    
Minimum Humidity 71    
Precipitation
Precipitation 0.18 in 0.31 in 1.79 in (1992)
Month to date precipitation 5.93  
Year to date precipitation 39.84  
Wind
Wind Speed 10 mph   
Max Wind Speed 29 mph   
Max Gust Speed 40 mph   
Visibility 10 miles   
Events Rain   

Key: T is trace of precipitation, MM is missing value
Source: NWS Daily Summary
Time(PST)TemperatureDew PointHumidity Pressure Visibility Wind DirectionWind SpeedGust SpeedPrecipitationEvents Conditions
12:58 AM 45.0°F 38.3°F 77% 29.54 in 10.0 miles South 1.2 mph - N/A   Mostly Cloudy
1:03 AM 44.6°F 39.2°F 81% 29.52 in 10.0 miles SSE 1.2 mph - N/A   Light Drizzle
1:27 AM 44.6°F 41.0°F 87% 29.52 in 10.0 miles SW 4.6 mph - N/A   Overcast
1:29 AM 44.6°F 41.0°F 87% 29.52 in 10.0 miles SW 3.5 mph - N/A   Overcast
1:30 AM 44.6°F 41.0°F 87% 29.52 in 10.0 miles SW 3.5 mph - N/A   Light Drizzle
1:48 AM 44.6°F 41.0°F 87% 29.52 in 10.0 miles Variable 1.2 mph - N/A   Overcast
1:58 AM 44.2°F 40.6°F 87% 29.54 in 10.0 miles SSE 2.3 mph - 0.01 in   Mostly Cloudy
2:58 AM 48.4°F 39.7°F 72% 29.55 in 10.0 miles SSE 16.1 mph 24.2 mph 0.01 in   Overcast
3:18 AM 48.2°F 39.2°F 71% 29.55 in 10.0 miles SSE 17.3 mph 25.3 mph N/A   Overcast
3:33 AM 48.2°F 39.2°F 71% 29.55 in 10.0 miles SSE 15.0 mph 31.1 mph N/A   Overcast
3:38 AM 48.2°F 39.2°F 71% 29.56 in 10.0 miles SSE 18.4 mph - N/A   Overcast
3:58 AM 46.9°F 39.7°F 76% 29.57 in 10.0 miles SSE 12.7 mph - N/A   Overcast
4:37 AM 46.4°F 39.2°F 76% 29.57 in 10.0 miles SSE 25.3 mph 31.1 mph N/A Rain Light Rain
4:47 AM 46.4°F 39.2°F 76% 29.58 in 10.0 miles SSE 19.6 mph 34.5 mph N/A Rain Light Rain
4:51 AM 46.4°F 39.2°F 76% 29.58 in 9.0 miles SSE 28.8 mph 40.3 mph N/A   Overcast
4:57 AM 46.4°F 41.0°F 81% 29.60 in 7.0 miles SSE 23.0 mph 40.3 mph N/A Rain Light Rain
4:58 AM 45.7°F 39.7°F 80% 29.62 in 7.0 miles SSE 21.9 mph 40.3 mph 0.02 in Rain Light Rain
5:18 AM 44.6°F 41.0°F 87% 29.64 in 10.0 miles South 18.4 mph 28.8 mph N/A Rain Light Rain
5:19 AM 44.6°F 41.0°F 87% 29.64 in 10.0 miles South 16.1 mph 28.8 mph N/A   Overcast
5:29 AM 44.6°F 41.0°F 87% 29.65 in 10.0 miles South 15.0 mph - N/A   Overcast
5:34 AM 44.6°F 41.0°F 87% 29.66 in 10.0 miles South 18.4 mph 24.2 mph N/A   Overcast
5:39 AM 44.6°F 39.2°F 81% 29.67 in 10.0 miles South 16.1 mph 27.6 mph N/A   Mostly Cloudy
5:42 AM 42.8°F 39.2°F 87% 29.67 in 10.0 miles South 16.1 mph 27.6 mph N/A Rain Light Rain
5:47 AM 42.8°F 39.2°F 87% 29.68 in 7.0 miles South 12.7 mph 24.2 mph N/A Rain Light Rain
5:58 AM 43.2°F 40.3°F 90% 29.71 in 8.0 miles South 11.5 mph - 0.08 in Rain Light Rain
6:03 AM 42.8°F 41.0°F 93% 29.69 in 10.0 miles South 11.5 mph - N/A   Light Drizzle
6:06 AM 42.8°F 41.0°F 93% 29.69 in 10.0 miles South 11.5 mph - N/A   Overcast
6:11 AM 42.8°F 41.0°F 93% 29.69 in 10.0 miles South 12.7 mph - N/A   Overcast
6:31 AM 42.8°F 41.0°F 93% 29.71 in 10.0 miles South 10.4 mph - N/A   Scattered Clouds
6:58 AM 42.6°F 39.7°F 90% 29.75 in 10.0 miles South 10.4 mph - 0.01 in   Clear
7:41 AM 41.0°F 39.2°F 93% 29.77 in 10.0 miles SSE 9.2 mph - N/A   Scattered Clouds
7:58 AM 42.6°F 39.4°F 88% 29.80 in 10.0 miles South 12.7 mph 19.6 mph 0.01 in   Light Drizzle
8:05 AM 42.8°F 39.2°F 87% 29.78 in 10.0 miles South 10.4 mph 19.6 mph N/A   Mostly Cloudy
8:58 AM 43.0°F 40.1°F 90% 29.83 in 10.0 miles SSE 10.4 mph - 0.00 in   Scattered Clouds
8:59 AM 42.8°F 39.2°F 87% 29.81 in 10.0 miles South 10.4 mph - N/A   Mostly Cloudy
9:04 AM 42.8°F 39.2°F 87% 29.82 in 10.0 miles SSE 9.2 mph - N/A   Scattered Clouds
9:34 AM 42.8°F 39.2°F 87% 29.82 in 10.0 miles SSE 10.4 mph - N/A   Mostly Cloudy
9:39 AM 42.8°F 41.0°F 93% 29.82 in 10.0 miles SSE 9.2 mph - N/A   Mostly Cloudy
9:58 AM 44.1°F 40.3°F 87% 29.85 in 10.0 miles SSE 11.5 mph - N/A   Mostly Cloudy
10:14 AM 44.6°F 39.2°F 81% 29.85 in 10.0 miles South 13.8 mph - N/A   Mostly Cloudy
10:24 AM 42.8°F 39.2°F 87% 29.85 in 10.0 miles South 12.7 mph 20.7 mph N/A   Light Drizzle
10:29 AM 42.8°F 39.2°F 87% 29.86 in 10.0 miles SSE 15.0 mph - N/A   Mostly Cloudy
10:40 AM 42.8°F 39.2°F 87% 29.86 in 10.0 miles South 10.4 mph 18.4 mph N/A Rain Light Rain
10:45 AM 42.8°F 39.2°F 87% 29.86 in 10.0 miles South 16.1 mph 23.0 mph N/A Rain Light Rain
10:58 AM 42.8°F 39.6°F 88% 29.89 in 10.0 miles South 10.4 mph 21.9 mph 0.02 in Rain Light Rain
11:01 AM 42.8°F 39.2°F 87% 29.87 in 10.0 miles South 10.4 mph 21.9 mph N/A   Overcast
11:06 AM 42.8°F 39.2°F 87% 29.87 in 10.0 miles South 12.7 mph 19.6 mph N/A   Overcast
11:16 AM 42.8°F 39.2°F 87% 29.87 in 10.0 miles South 11.5 mph - N/A   Mostly Cloudy
11:21 AM 42.8°F 39.2°F 87% 29.88 in 10.0 miles South 9.2 mph - N/A   Mostly Cloudy
11:26 AM 42.8°F 39.2°F 87% 29.88 in 10.0 miles South 12.7 mph - N/A   Mostly Cloudy
11:27 AM 42.8°F 39.2°F 87% 29.88 in 10.0 miles South 12.7 mph - N/A Rain Light Rain
11:50 AM 42.8°F 39.2°F 87% 29.88 in 10.0 miles SSE 15.0 mph 24.2 mph N/A   Mostly Cloudy
11:55 AM 42.8°F 39.2°F 87% 29.88 in 10.0 miles SSE 10.4 mph 24.2 mph N/A   Mostly Cloudy
11:58 AM 42.8°F 39.2°F 87% 29.90 in 10.0 miles SSE 12.7 mph - 0.01 in   Mostly Cloudy
12:21 PM 42.8°F 39.2°F 87% 29.89 in 10.0 miles South 15.0 mph - N/A   Light Drizzle
12:33 PM 44.6°F 41.0°F 87% 29.89 in 10.0 miles SSE 15.0 mph 19.6 mph N/A   Scattered Clouds
12:58 PM 46.2°F 39.7°F 78% 29.92 in 10.0 miles SSE 17.3 mph 25.3 mph 0.00 in   Partly Cloudy
1:18 PM 46.4°F 39.2°F 76% 29.92 in 10.0 miles South 12.7 mph 24.2 mph N/A   Mostly Cloudy
1:20 PM 44.6°F 39.2°F 81% 29.92 in 10.0 miles South 18.4 mph 25.3 mph N/A Rain Light Rain
1:29 PM 44.6°F 39.2°F 81% 29.94 in 5.0 miles South 12.7 mph 25.3 mph N/A Rain Light Rain
1:51 PM 44.6°F 41.0°F 87% 29.94 in 10.0 miles SSE 12.7 mph - N/A   Mostly Cloudy
1:56 PM 44.6°F 41.0°F 87% 29.95 in 10.0 miles SSE 11.5 mph - N/A   Scattered Clouds
1:58 PM 44.1°F 40.5°F 87% 29.97 in 10.0 miles South 10.4 mph - N/A   Scattered Clouds
2:33 PM 44.6°F 39.2°F 81% 29.97 in 10.0 miles South 11.5 mph - N/A   Light Drizzle
2:41 PM 44.6°F 39.2°F 81% 29.98 in 10.0 miles South 17.3 mph 27.6 mph N/A   Scattered Clouds
2:58 PM 44.1°F 39.9°F 85% 30.01 in 10.0 miles South 10.4 mph - 0.00 in   Scattered Clouds
3:41 PM 44.6°F 41.0°F 87% 30.03 in 10.0 miles South 9.2 mph - N/A   Light Drizzle
3:46 PM 44.6°F 41.0°F 87% 30.04 in 10.0 miles SSW 6.9 mph - N/A Rain Light Rain
3:58 PM 44.2°F 40.3°F 86% 30.07 in 9.0 miles WSW 6.9 mph - 0.01 in Rain Light Rain
4:08 PM 44.6°F 39.2°F 81% 30.05 in 10.0 miles South 4.6 mph - N/A   Light Drizzle
4:11 PM 44.6°F 41.0°F 87% 30.05 in 10.0 miles South 5.8 mph - N/A   Overcast
4:12 PM 44.6°F 41.0°F 87% 30.05 in 10.0 miles South 6.9 mph - N/A   Light Drizzle
4:27 PM 42.8°F 41.0°F 93% 30.07 in 6.0 miles SSW 5.8 mph - N/A Rain Light Rain
4:37 PM 42.8°F 41.0°F 93% 30.07 in 9.0 miles SSW 10.4 mph - N/A   Light Drizzle
4:40 PM 42.8°F 41.0°F 93% 30.08 in 10.0 miles SSW 8.1 mph - N/A   Overcast
4:58 PM 42.8°F 40.3°F 91% 30.11 in 10.0 miles SSE 9.2 mph - N/A   Mostly Cloudy
5:58 PM 41.9°F 38.8°F 89% 30.14 in 10.0 miles South 10.4 mph - N/A   Scattered Clouds
6:58 PM 41.2°F 38.5°F 90% 30.18 in 10.0 miles SSE 9.2 mph - N/A   Partly Cloudy
7:58 PM 39.9°F 37.6°F 91% 30.21 in 10.0 miles SSE 10.4 mph - N/A   Clear
8:58 PM 40.1°F 37.6°F 91% 30.25 in 10.0 miles SSE 10.4 mph - N/A   Clear
9:58 PM 38.7°F 37.2°F 95% 30.28 in 10.0 miles ESE 5.8 mph - N/A   Clear
10:58 PM 35.8°F 34.5°F 95% 30.30 in 10.0 miles South 4.6 mph - N/A   Partly Cloudy
11:58 PM 34.9°F 34.3°F 98% 30.31 in 10.0 miles SE 5.8 mph - N/A   Clear
Moon Phase
Nov. 21 Nov. 28 Dec. 06 Dec. 13 Dec. 20
Sunrise:07:23 AM (PST) Moon Rise:01:09 PM (PST)
Sunset:04:29 PM (PST) Moon Set:12:24 AM (PST)

Copyright © 2014 The Weather Underground, Inc.